Theta_e
282 281 279 279 278 277 277 277 276 276 276 276 276 277 278 279 278 278 277 278 278 279 280 280 280 280 281 283 285 287 287 287 290 291 291 291 290 290 290 290 290 290 290
282 280 279 278 277 277 276 276 276 275 275 275 276 277 278 278 278 278 277 277 277 277 278 278 279 280 281 282 285 286 286 287 288 289 290 289 290 289 289 289 288 289 289
281 279 278 277 277 276 276 276 276 275 275 275 276 277 278 279 279 278 276 276 277 276 277 277 278 279 280 281 285 286 286 287 287 289 289 288 289 289 289 288 288 288 288
280 278 278 277 276 276 276 276 275 274 274 275 276 277 277 278 280 278 276 275 277 276 276 277 279 279 280 282 286 286 285 286 286 288 289 288 288 288 289 287 286 286 286
279 278 277 277 276 275 275 275 274 274 274 275 275 276 276 277 279 278 277 275 276 275 276 277 280 281 283 283 286 286 285 285 285 286 287 287 288 288 288 288 285 285 285
279 277 276 276 275 275 275 275 274 273 274 274 274 274 275 277 279 278 276 274 275 275 275 276 279 281 283 284 285 285 285 285 285 285 285 286 286 286 287 286 285 286 286
278 276 276 275 275 274 274 274 273 273 273 274 274 274 274 275 277 278 275 274 275 274 274 275 278 281 282 284 284 284 284 284 284 283 284 284 285 285 286 286 287 286 285
277 275 275 274 274 274 274 273 273 273 273 273 273 273 274 275 277 277 275 273 274 273 273 276 278 280 282 283 283 284 283 283 283 283 283 283 284 285 287 287 287 285 284
276 275 274 274 274 274 273 273 273 273 273 273 273 273 274 274 276 277 275 273 272 272 275 277 278 280 282 282 282 283 283 283 283 283 283 283 284 286 286 286 285 286 285
275 275 275 274 275 274 273 273 273 273 273 273 273 273 273 273 275 276 275 273 272 273 275 276 278 280 281 281 281 281 282 282 282 283 283 283 283 283 285 286 286 286 285
276 275 274 274 274 274 273 272 272 272 273 273 273 273 273 273 273 275 274 273 272 273 274 275 276 278 279 280 279 280 280 282 282 282 282 281 281 281 282 283 285 286 285
275 274 273 273 273 273 272 272 272 272 272 273 273 273 273 272 273 273 273 273 273 273 273 273 274 276 279 278 278 280 282 282 281 281 281 281 281 281 280 281 283 285 285
273 273 273 272 273 272 272 271 271 271 272 272 272 273 273 273 272 272 271 272 273 274 273 272 275 278 279 280 280 280 281 280 279 279 280 281 281 281 281 281 281 283 284
271 271 272 272 272 271 272 271 271 271 271 271 272 272 273 273 272 272 271 272 273 275 275 276 276 277 277 278 279 279 278 278 277 277 279 280 282 282 281 282 281 282 284
271 270 270 271 271 271 271 271 272 272 272 271 272 272 273 273 273 273 272 271 271 273 275 277 277 277 277 277 277 277 278 278 278 277 278 279 281 281 281 282 282 283 282
270 270 270 270 271 271 271 271 272 272 273 273 272 272 273 273 272 272 271 270 271 272 274 272 271 271 271 272 274 275 275 276 276 276 277 278 279 280 281 282 283 282 282
271 270 270 270 270 270 270 271 272 273 273 273 272 273 273 273 272 271 270 269 269 271 270 268 268 269 269 271 272 273 273 275 275 275 276 277 278 279 280 280 281 282 281
272 271 271 270 270 270 270 271 272 272 271 271 271 272 272 272 270 270 270 271 271 270 269 268 267 268 269 270 271 273 274 275 276 275 276 277 277 277 278 279 280 280 281
271 271 271 270 270 270 270 271 272 271 271 270 270 270 270 270 269 270 270 270 270 269 269 268 268 268 268 269 270 272 273 274 274 275 276 276 277 277 278 279 279 280 281
271 271 271 270 270 270 270 271 271 270 269 269 269 269 269 269 269 269 269 270 269 269 269 269 268 268 268 269 269 271 273 274 274 275 275 276 277 277 278 278 279 279 279
271 270 271 270 270 270 271 271 271 270 269 269 269 269 269 269 269 268 269 269 269 269 269 269 269 269 269 269 269 270 271 272 273 274 275 275 277 278 278 279 279 280 281
271 270 270 270 269 270 271 271 270 270 270 269 269 268 270 269 269 269 268 268 268 268 268 269 269 269 270 270 270 269 270 271 272 273 274 275 277 277 278 279 280 280 281
270 270 270 269 270 270 270 270 270 270 270 269 269 268 269 269 268 269 268 268 268 268 268 268 268 268 269 270 270 270 270 270 271 272 273 275 276 277 277 278 279 280 280
270 270 269 269 269 270 270 270 270 270 270 269 269 269 269 268 268 268 268 268 268 268 268 268 268 268 268 269 269 270 270 269 270 270 272 274 276 277 278 278 279 279 280
270 270 269 269 269 269 269 270 270 269 269 269 269 269 268 268 268 268 268 268 268 268 268 269 268 268 267 268 270 270 270 271 271 271 271 273 275 277 278 278 279 279 279
270 270 269 269 269 269 269 269 269 269 269 269 269 269 269 268 268 268 268 268 268 268 268 268 268 269 268 268 268 270 270 271 271 272 271 272 274 276 277 278 279 279 279
Wind_Speed
19 14 10 6 3 2 4 7 9 11 13 14 14 14 17 20 20 19 18 16 16 16 18 20 22 24 27 28 27 26 22 18 5 6 13 11 10 12 15 17 19 20 18
21 16 12 8 5 2 4 6 8 10 12 13 13 13 17 19 20 19 19 15 18 18 19 20 23 26 27 29 26 26 24 21 11 7 8 12 9 10 13 15 17 18 19
23 19 15 11 7 4 4 6 7 9 11 12 12 14 16 19 17 18 19 15 15 18 18 19 22 25 29 32 28 26 23 22 19 6 8 10 7 7 12 14 15 16 16
26 21 17 13 9 7 6 6 8 9 11 11 10 11 14 19 18 17 19 16 14 17 17 18 20 23 28 32 27 25 23 22 21 16 11 8 8 6 6 10 13 14 16
29 25 20 16 12 10 9 8 8 9 11 10 8 8 12 18 22 19 19 16 15 16 16 19 20 25 28 28 26 25 23 21 18 16 13 10 9 6 4 4 9 12 13
32 27 23 18 15 12 11 9 8 9 11 10 9 11 12 16 20 20 21 14 14 16 16 18 19 26 30 32 23 22 20 22 18 16 13 11 12 9 4 8 11 5 3
33 29 25 21 18 15 13 11 9 10 12 12 11 11 14 15 20 21 20 15 12 15 15 17 19 25 29 30 23 21 22 19 19 17 13 13 10 10 4 8 7 6 6
35 32 28 24 21 18 15 13 11 10 12 13 13 12 13 16 20 21 19 16 12 14 13 16 20 25 28 26 22 23 22 20 19 18 17 13 13 10 4 4 7 13 14
38 35 31 27 24 21 18 16 13 11 11 12 13 13 12 16 19 20 21 17 15 12 13 16 20 24 23 23 22 22 21 22 18 15 15 17 12 9 6 9 12 11 5
42 38 33 29 25 23 20 18 14 11 11 11 11 13 12 17 18 19 19 16 18 14 14 15 21 19 20 22 21 20 20 20 19 18 18 19 16 12 7 7 10 5 8
42 38 34 30 27 23 21 18 15 12 12 12 11 12 15 14 20 19 18 18 16 14 15 19 21 19 17 21 20 20 17 15 18 19 19 18 17 17 15 10 6 7 7
43 40 37 32 29 26 23 19 15 13 12 11 11 14 15 18 16 19 17 16 15 14 14 17 17 17 17 19 21 19 18 19 22 19 19 18 15 18 16 13 10 8 8
44 42 39 34 31 27 25 21 18 14 13 11 11 14 15 17 20 19 16 15 15 14 13 12 14 15 17 19 23 23 23 24 24 23 19 18 15 11 9 12 14 18 19
44 43 40 37 33 28 24 21 19 17 15 13 12 13 14 16 18 21 20 17 14 14 12 13 15 19 22 23 25 28 28 26 24 22 20 16 16 17 14 11 13 19 22
41 41 39 37 35 31 26 23 20 15 13 14 12 11 13 14 14 16 17 17 14 13 12 14 18 21 26 29 29 30 29 28 27 25 22 19 17 17 16 14 15 16 16
38 36 35 36 35 33 29 22 16 15 10 8 10 9 10 8 9 13 15 15 12 12 15 21 21 22 23 25 28 29 29 29 27 25 23 20 19 18 17 15 17 20 19
39 36 35 34 34 34 33 30 26 17 12 11 9 8 7 7 7 11 13 15 16 14 21 20 20 19 20 22 23 25 26 26 25 26 24 23 19 18 17 16 15 15 15
38 39 38 36 35 34 34 32 30 28 24 18 11 10 7 7 8 8 11 14 20 21 21 18 18 17 18 19 20 22 23 26 26 27 26 24 21 19 18 17 17 14 12
39 37 36 35 35 35 35 34 30 26 23 19 15 13 12 7 6 7 9 13 16 18 18 17 16 16 16 16 17 18 20 24 25 27 27 24 22 20 19 17 15 15 13
38 39 39 37 36 36 36 33 29 25 22 19 16 12 11 9 6 5 6 9 10 14 15 15 15 16 15 15 15 16 17 21 24 26 27 25 22 20 18 17 15 15 14
37 37 39 37 38 38 38 36 32 28 24 21 17 14 11 9 8 7 5 5 7 8 11 12 13 14 16 16 14 15 16 18 20 22 24 25 24 22 19 18 16 15 12
38 38 38 37 38 39 39 36 32 29 25 23 20 16 11 11 10 8 6 5 3 4 6 8 9 11 13 16 16 15 15 16 17 18 20 23 24 22 20 18 17 18 16
38 38 35 36 39 40 39 36 32 29 26 22 20 19 14 11 10 9 8 7 5 3 3 4 6 7 9 12 15 16 15 15 15 15 16 19 22 22 20 19 18 16 18
39 38 37 37 39 40 39 37 33 30 27 24 21 18 15 12 10 9 8 8 7 5 3 1 2 4 6 7 10 13 15 14 14 13 13 14 17 19 21 19 19 17 15
39 37 37 40 41 40 40 38 35 32 28 25 22 19 16 15 13 11 10 9 8 7 5 3 1 2 2 3 5 7 10 13 13 13 11 11 13 16 19 21 19 18 16
37 39 37 38 39 38 40 39 37 33 30 27 23 19 17 15 14 13 12 11 10 8 7 5 4 2 2 1 1 3 5 9 13 14 11 8 8 11 15 18 19 18 16
Wind_Direction
186 188 184 174 148 51 33 29 23 24 27 25 23 26 22 21 20 5 10 8 7 0 3 1 -0 1 354 352 354 357 354 352 321 327 8 16 45 72 78 82 86 88 82
185 184 181 176 161 125 67 47 36 32 34 32 31 30 23 22 20 3 5 6 8 4 6 5 3 2 358 354 352 359 354 355 346 324 355 21 53 72 81 82 85 87 86
185 183 179 175 167 145 102 73 54 42 41 39 38 33 26 21 21 4 0 1 2 5 7 6 2 3 356 351 354 360 357 360 6 346 31 36 60 79 91 85 82 84 84
184 183 179 174 170 150 119 91 69 51 47 44 41 35 28 28 23 8 1 358 358 1 9 10 9 7 355 348 353 2 360 6 10 16 35 33 43 68 97 93 77 79 83
182 182 179 173 168 150 129 105 78 58 56 52 40 30 26 31 11 8 0 358 358 356 7 14 17 20 15 9 5 8 10 13 12 18 27 25 32 37 60 104 99 92 80
183 180 177 170 163 151 134 114 94 80 67 60 43 33 26 30 12 8 360 2 1 358 356 9 19 21 18 16 13 18 23 20 15 20 18 14 15 19 57 126 129 108 92
182 179 175 169 160 154 140 126 115 90 72 60 48 35 28 23 11 7 6 7 5 359 360 8 20 23 19 5 23 24 30 28 32 30 20 16 0 4 57 124 117 94 100
182 177 174 168 162 155 147 139 127 103 81 64 50 39 31 22 10 8 5 9 6 6 15 20 27 22 15 6 14 23 27 28 28 30 32 24 25 27 71 155 130 118 112
182 178 175 170 164 158 154 146 135 115 95 72 53 43 35 26 16 14 4 14 6 23 34 35 32 23 14 14 19 20 17 25 32 35 35 34 37 47 67 124 124 125 105
183 179 174 171 167 161 156 149 140 126 103 83 65 48 38 29 24 19 12 18 18 29 39 41 40 24 21 22 26 22 16 19 23 38 41 38 37 46 83 124 148 138 123
181 176 172 171 168 163 156 153 146 132 112 91 74 59 46 31 23 20 22 27 20 27 30 32 32 20 28 27 29 27 22 27 42 41 42 44 49 47 51 66 135 159 116
177 173 171 169 168 166 160 154 149 139 126 105 83 64 49 36 26 24 24 30 26 36 27 27 19 17 31 33 34 34 43 45 47 39 30 32 35 42 46 57 80 113 130
173 172 171 169 169 170 164 159 154 149 138 118 86 66 49 39 33 27 29 32 39 39 34 24 30 40 45 46 45 44 43 43 40 37 23 21 34 40 60 73 92 106 116
167 169 170 170 171 171 169 166 160 153 140 127 99 76 57 42 31 26 28 41 49 52 51 56 57 55 52 50 48 46 45 44 40 36 36 39 42 46 48 70 93 103 104
165 167 169 171 172 173 173 170 163 151 140 133 122 91 68 49 36 35 27 35 40 47 62 66 58 51 48 46 45 44 41 41 40 40 38 41 45 47 50 81 101 104 98
161 165 169 169 172 174 169 160 164 154 144 144 114 93 89 69 50 46 42 41 53 62 69 64 55 49 46 43 39 39 38 38 36 39 40 42 41 39 48 63 86 92 91
165 168 169 169 171 172 169 163 158 158 150 145 134 118 99 80 61 58 48 56 61 69 66 61 58 50 45 47 46 39 35 38 38 42 42 41 44 52 53 58 67 78 81
170 171 172 172 174 175 174 170 163 161 158 155 147 134 116 101 73 68 61 62 65 61 63 57 55 51 46 46 45 43 39 42 40 42 43 45 46 51 48 48 54 61 76
171 171 173 174 176 179 180 178 175 173 170 168 165 157 139 125 107 84 75 68 69 66 62 57 53 52 47 47 49 47 44 44 41 41 44 43 46 48 55 58 56 60 74
175 176 176 173 176 181 183 180 179 180 179 184 178 175 168 163 154 129 93 77 67 71 63 56 51 51 47 47 46 50 49 47 44 42 42 42 45 50 53 56 57 56 62
171 172 175 174 179 182 184 184 183 185 182 182 178 181 175 172 170 160 133 105 84 65 68 60 50 48 48 47 49 51 52 50 46 42 40 40 41 47 53 59 60 61 68
170 172 174 175 179 182 186 187 185 186 183 182 178 177 184 177 173 173 158 145 126 98 67 62 52 46 43 46 47 50 52 50 46 44 40 40 43 47 55 58 60 54 61
170 169 171 175 181 184 186 188 186 187 186 186 185 187 190 188 182 182 182 177 171 150 101 63 48 41 39 38 43 44 47 47 43 40 39 39 42 44 51 56 57 57 53
170 170 170 173 179 183 187 187 187 190 189 188 192 197 201 210 199 197 202 192 191 185 171 107 42 32 33 34 36 40 41 44 46 41 39 43 45 44 47 55 59 58 62
171 169 172 175 180 182 186 188 188 189 191 193 196 199 202 210 215 212 214 214 202 202 193 192 224 343 15 26 26 38 37 34 38 39 40 45 46 47 49 50 55 63 67
171 172 173 177 179 184 186 187 190 192 192 194 198 200 205 212 218 219 222 223 221 213 203 199 220 248 286 317 16 22 28 28 34 32 39 49 54 52 52 53 54 61 66